Race Results for
Chile Challenge PRO GRT
Angel Fire, NM
(Event Information)
Downhill on 06/09/2013

Note: Ranking points are NOT upgrade points. An explanation of ranking points can be found here.


Men - Pro - Progrt

 Place Points NameCity, StateTime USAC #BibTeam
1156.77Michael Sylvestri   Truckee5:42.30 288977  39 
2163.06Joey Schusler   Boulder, CO5:52.45 201238  48 Yeti / Fox Shox Factory
3169.35Cody Warren   Alpine, CA5:53.43 160802  41 
4175.64Austin Hackett Klaube   Dillon, CO5:55.47 294146  31 
5181.93Chris Higgerson   Deansboro, NY5:57.70 208966  26 
6188.22Zach Graveson   Pagosa Springs, CO5:59.77 350876  30 Fort Lewis College
7194.51Andrew Terry   Kingston6:00.69 381701  49 
8200.80Kellen Lutz   Fraser, CO6:02.93 265510  
9207.09Kyle Hogan   Atascadero, CA6:03.57 368923  11 
10213.38Adam Digby   San Juan Capistrano, CA6:04.08 295155  32 
11219.67Ryan Paquette   San Clemente, CA6:04.47 351918  36 
12225.96Scott Countryman   Flagstaff, AZ6:05.54 258025  
13232.25Chris Boice   Albuquerque, NM6:06.22 215006  19 
14238.54Johnathon Keep   Ramona, CA6:06.48 251434  40 
15244.83Joseph Picchiottino   Hemet, CA6:06.99 135323  
16251.12Harrison Ory   Denver, CO6:07.89 230690  10 
17257.41Waylon Smith   Frazier Park, CA6:11.07 42824  45 
18263.70Dillon Lemarr   Amarillo, TX6:11.93 291074  
19269.99Kiran MacKinnon   Santa Cruz, CA6:12.01 298817  24 
20276.28Ryan Walker   Scotts Valley, CA6:12.06 297530  35 
21282.57Riley Mueller   Flagstaff, AZ6:12.21 290224  33 
22288.86Matthew Thompson   Denver, CO6:12.38 99996  20 
23295.15Steven Wentz   Boulder, CO6:13.73 148884  29 
24301.44Philip Wheeler   Colorado Springs, CO6:16.72 169103  23 
25307.73Daniel Weinman   Taos6:18.46 161751  43 
26314.02Bo MacArthur   Davis, CA6:19.20 320254  34 Bicycle Emporium
27320.31David Seaquist   Henderson, NV6:21.93 324232  46 
28326.60Lucas Cowan   San Diego Ca 921316:25.08 310952  22 Northern Arizona University
29332.89William Lujan   Albuquerque, NM6:26.56 211813  44 
30339.18Andre Pepin   Poway, CA6:26.77 234511  38 
31345.47Antonio Gradillas   Albuquerque, NM6:28.47 180870  50 
31345.47Wiley Kaupas   Dillon, CO6:28.47 292907  
33358.05Greg Glynn   Nipomo, CA6:32.13 310112  12 
34364.34Blair Reed   Boulder, CO6:44.93 201148  
35370.63Matson Hunter   Tijeras, NM6:46.28 281707  
36376.92Andrew Dean   Boulder, CO6:54.65 318778  18 
37383.21Micah VanHorn   Broomfield, CO6:57.72 313394  
38Mihai Moga   7:08.22  28 
39395.79Scott Gladu   Flagstaff, AZ7:10.68 345540  
DNFDoug Ewer   Denver, CO996 182791  14 
DNFLarry Greene   Scottsdale, AZ996 112067  21 
DNFMikey Haderer   Concord, CA996 190065  13 
DNFPaul McSparin   Frisco, CO996 294143  16 
DNFTrevor Trinkino   Evergreen, CO999 242852  15 

Men - Cat 1 - Junior - 15-18

 Place Points NameCity, StateTime USAC #BibTeam
1226.40Cole Picchiottino   Murrieta, CA5:52.85 351042  122 
2239.80Shane Leslie   Birmingham, MI5:54.39 317122  145 
3253.20Chase Nelson   Littleton, CO6:06.75 264517  103 Trek/Fly/RideWRC.com
4266.60Galen Carter   Salt Lake City, UT6:16.23 231784  135 
5280.00Jason Schroeder   Carlsbad, CA6:16.98 356538  146 
6293.40Niko Kilik   San Jose6:19.96 399742  174 
7306.80Tanner Spence   Carbondale, CO6:25.77 246796  106 
8320.20Tyler Spence   Carbondale, CO6:26.59 248811  107 
9333.60Dylan Unger   Yorba Linda, CA6:27.77 347306  155 
10347.00Charlie Harrison   Trabuco Canyon, CA6:31.95 375880  141 
11360.40Jack Dean   Boulder, CO6:35.18 318372  198 
12373.80Todd Renwick   Soulsbyville, CA6:35.59 359655  130 
13387.20Matthew Parker   Hemet6:35.69 400121  157 
14400.60Bryce Hermanussen   Golden, CO6:35.83 318756  159 
15414.00Quintin Kurtz   Evergreen, CO6:36.96 259184  112 
16427.40Demetri Triantafillou   Salt Lake City, UT6:38.04 374963  132 
17440.80Tyler Krenek   Tucson, AZ6:41.09 355340  116 
18454.20Oliver Vowel   Dillon, CO6:44.65 298244  139 
19467.60Wyatt Freier   Castle Rock, CO6:45.40 309949  110 
20481.00Andras Simon   Foothill Ranch6:49.91 397243  185 
21494.40Dylan Kish   Granby, CO7:24.24 382678  126 
22507.80Noah Fairburn   Huntsville, AL10:07.61 320970  193 
23521.20Gavin Gargiulo   Colorado Springs, CO10:21.05 353172  142 Stratical Solutions
24534.60Cory Holmes   Tucson, AZ15:28.87 355342  113 
DNFRoy Benge   Carbondale, CO999 246529  105 
DNFMatthew Branney   Littleton, CO999 219366  124 
DNFDylan Crane   Carbondale999 379184  115 
DNFMax Kaupas   Dillon, CO999 292910  108 
DNFAndrew Schneider   Wheat Ridge, CO996 379316  152 

Men - Cat 1 - Senior - 19-29

 Place Points NameCity, StateTime USAC #BibTeam
1354.47Brian White   Castle Rock, CO6:11.91 351914  140 
2364.28Jacob Hatton   Eagle Nest, NM6:14.19 355336  191 
3374.09Linton Judycki   Red River, NM6:21.64 353484  171 
4383.90Joe Barry   Colorado Springs, CO6:22.13 321972  405 One Star Racing
5393.71Thomas McCoy   June Lake, CA6:25.81 393409  100 
6403.52robert nichols   Durango, CO6:28.58 384642  163 
7413.33John Oddonetto   Flagstaff, AZ6:30.90 376090  120 
8423.14Weston Walker   Laramie, WY6:32.88 358979  189 University of Wyoming
9432.95Tyler Palmer   Moab, UT6:32.99 264725  160 
10442.76Ty Brooks   Los Alamos, NM6:33.76 295797  195 
11452.57max loewenstein   Durango, CO6:35.91 381846  128 
12462.38Christian Gonzalez   Santa Clarita, CA6:37.70 358579  144 
13472.19Kevin Feeney-Mosier   Boulder, CO6:38.36 379252  168 
14482.00Logan Walker   Taylorsville6:41.46 366121  188 University of Wyoming
15491.81Israel Tilman   Prescott6:41.55 367308  137 
16501.62Bryan Pagel   Tucson, AZ6:46.07 366484  154 
17511.43Ian Supple   Albuquerque, NM6:46.97 389215  192 
18521.24Calvin Davis   Alamogordo Nm6:51.32 387585  194 
19531.05kyle fitzgerald   Pinetop, AZ6:52.36 357899  129 
20540.86Benjamin Williams   Angel Fire, NM6:54.43 406560  199 
21550.67Sawyer Miller   Ruidoso, NM6:57.68 351294  125 
22560.48Sage Brown   Tempe, AZ7:05.60 403314  153 
23570.29Nicholas Lyle   Boulder, CO7:08.55 322804  143 University of Colorado Boulder
24580.10Ryan Hockett   Poway Ca7:57.11 319448  147 
25589.91sean cruse   Glendale, AZ8:02.08 401815  118 
DNSjames fuller   Atascadero, CA 406723  169 

Men - Cat 1 - Master - 30+

 Place Points NameCity, StateTime USAC #BibTeam
1418.48Leigh Harris   Golden6:18.05 392886  121 
2434.38Kyle Lofstedt   Denver , CO6:31.51 382758  131 
3450.28Joe Dodds   Lakewood, CO6:40.21 191597  156 
4466.18Matt Giaraffa   Denver, CO6:47.98 296345  134 
5482.08Ron Huber   Phoenix6:55.77 394623  158 
6497.98Noah Priegel   Frisco, CO6:58.57 374498  151 
7513.88Coy Miller   Caseyville, IL6:58.74 270672  401 Bike Surgeon/Continental Tire
8529.78Moises Alarcon   Thornton, CO7:10.19 79633  133 
9545.68Justin Richardson   Denver, CO7:27.82 353138  148 

Men - Cat 1 - Master - 40+

 Place Points NameCity, StateTime USAC #BibTeam
1430.57Alexander Morgan   Amarillo6:30.09 25033  165 
2443.86Neal Pederson   Los Alamos, NM6:31.20 212939  181 Bike n Sport Racing
3457.15Ryan Steele   Lakewood, CO6:34.66 349504  149 
4470.44William Dale   Bentonville, AR6:37.44 395751  102 
5483.73Curt Clemetson   Aspen, CO6:43.94 279045  162 
6497.02David Donohue   Sedona, AZ6:46.09 157403  119 
7510.31John Lewis   Henderson, CO6:52.36 261966  101 
8523.60Andrew Heine   Denver, CO6:55.13 298791  197 
9536.89James Gillespie   Golden, CO7:03.26 215566  150 
10550.18Bryan Redding   Winter Park, CO7:04.48 263281  114 
11563.47Jason Hofman   Grand Junction, CO7:06.53 16452  123 
12576.76Randy Hall   Las Vegas, NV7:55.64 64140  111 
13590.05Tony Del Grippo   Golden, CO8:08.23 321520  109 
DNSJohnnie Kavanaugh   Golden, CO 75267  173 A Culture of Speed

Men - Cat 2 - Junior - 15-18

 Place Points NameCity, StateTime USAC #BibTeam
1466.64Cole Hengeveld   Flagstaff, AZ6:41.39 367375  209 
2Chris Anderson   6:47.44  281 
3481.16Tristan Hunter   Phoenix, AZ6:48.73 407401  200 
4488.42tucker kennedy   Colorado Springs6:49.77 406951  203 
5Tyler Heuertz   6:54.22  241 
6502.94Dan Strangfeld   Parker, CO6:56.35 329726  231 
7510.20Bryce Helbling   Sandy, UT6:57.81 406096  211 
8517.46Josh Pottridge   Van Buren, AR7:03.19 353982  206 
9524.72Drey Smith   Ruidoso7:04.76 309761  286 
10531.98Bailey Dale   Sturgis, SD7:07.07 381311  212 
11539.24Shelby Denney   Ruidoso, NM7:07.99 361682  287 
12546.50Grayson Richey   Colorado Springs, CO7:11.05 343688  230 
13553.76Sam Cory   Golden, CO7:17.27 408319  205 
14561.02Triton Nelson   Albuquerque, NM7:21.93 352812  244 
15568.28Devon McDade   Lakewood, CO7:31.96 297034  237 
16Deane Long   7:52.48  250 
17582.80Shane Ellis   Durango, CO11:09.02 294216  218 Durango Devo
18590.06Nicholas Haller   Monument, CO20:01.30 368362  227 

Men - Cat 2 - Senior - 19-29

 Place Points NameCity, StateTime USAC #BibTeam
1540.00Brandon Watson   Telluride, CO6:44.36 355646  216 
2Zachary Lowney   6:50.26  210 
3Luca Digby   6:50.50  238 
4548.82Jake Rehfeld   Albuquerque, NM6:53.58 316702  242 
5551.76chuan banh   Albuquerque, NM6:59.84 298421  219 
6554.70Lionel Martinez   Kayenta, AZ7:01.69 331764  208 
7Johnny Eason   7:06.02  223 
8560.58Josh Gonzales   Los Alamos, NM7:10.89 280532  285 
9Jay Kendall Weingardt   7:17.64  282 
10566.46Jonathan Sego   Albuquerque, NM7:35.99 406456  274 
11569.40Austin Hatala   Durango, CO7:41.01 407230  260 
12572.34CORY HARALSON   Claremore, OK7:42.25 405573  259 
13575.28Eric Ottosen   Holman, NM7:42.49 382382  248 
14Anthony Laflam   8:11.20  202 
15581.16Aaron Lovato   Santa Fe, NM8:12.02 381257  243 
16584.10Marko Visnjic   Superior, CO8:21.05 362613  215 CU Cycling-Boulder
17587.04Jordan Hunter   Phoenix, AZ10:36.43 407414  201 
18589.98jonathan litton   Golden, CO13:08.93 407463  246 
DNSHunter Askelson   Indian Hills, CO 389282  252 
DNSPatrick Barton   Claremore, OK 406631  253 
DNSDavid Gladu     232 
DNSNicholas Olson   Henderson, NV 119222  240 
DNSScott Preston   Albuquerque, NM 315842  402 
DNFJamie Henderson   Colorado Springs 407181  234 One Star Racing

Men - Cat 2 - Master - 30+

 Place Points NameCity, StateTime USAC #BibTeam
1444.11Allen Weber   Tijeras, NM6:01.89 366982  289 
2458.70Ryan Sandlin   Flagstaffflagstaff, AZ6:56.87 406292  207 
3473.29Eric Sunderland   Longmont, CO6:57.93 407037  245 
4487.88Jonathan Glidden   Cloudcroft, NM7:07.35 407362  339 
5502.47Andrew Finesilver   Destin, FL7:10.71 107642  257 
6517.06Adam Croft   San Tan Valley, AZ7:25.09 345674  235 
7531.65Joel Sears   Austin, TX7:38.99 407305  228 
8546.24Matthew Dzuricky   Colorado Springs, CO7:40.50 397227  226 
9560.83thomas rodriguez   Los Lunas, NM7:57.66 381126  403 
10575.42Jordan Bawden   San Tan Valley, AZ8:05.60 393377  236 
11590.01Andres Pinto   Broomfield, CO8:09.89 406982  273 

Men - Cat 2 - Master - 40+

 Place Points NameCity, StateTime USAC #BibTeam
1540.00Paul Cherry   Lakewood, CO7:19.76 79569  284 
2547.14Henning Plesner   Golden, CO7:28.50 191120  220 
3554.28Joshua Michaels   Albuquerque, NM7:42.40 404483  270 
4561.42Thomas Gallasch   Alamogordo, NM7:52.36 405710  258 
5568.56Joseph Mueller   Mammothlakes, CA8:02.06 292081  233 
6575.70george triantafillou   Salt Lake City, UT8:14.06 406460  224 
7582.84Michael Knowles   Prescott, AZ8:28.83 262143  251 
8589.98Chris Hereford   Albuquerque, NM9:29.99 15911  283 Goathead Jr. Devo

Men - Cat 3 - Junior - 15-18

 Place Points NameCity, StateTime USAC #BibTeam
1540.00Sean Ungvarsky   Phoenix, AZ7:18.44 405064  327 
2546.25Sam Vickery   Littleton7:36.12 407184  312 
3552.50Spencer Caley   Monument, CO7:44.75 396312  331 
4558.75Tanner Stolt   Bella Vista, AR7:55.23 402278  301 
5565.00Ben Liptak   Albuquerque8:10.33 406740  304 
6571.25Zachary Agena   Rapid City, SD8:18.53 406514  316 
7577.50Evan Burgett   Golden, CO8:19.36 407371  310 
8583.75marcus judkins   Albuquerque8:41.93 407356  326 
9590.00Jakob Hurworth   Ignacio Co9:10.94 407080  308 Durango Devo

Men - Cat 3 - Senior - 19-29

 Place Points NameCity, StateTime USAC #BibTeam
1Tyler Gavigan   7:00.55  317 
2546.25Dustin Slaughter   Rogers7:01.04 404519  302 
3552.50Nick Wilvert   Albuquerque, NM7:23.09 406823  329 
4558.75Andres Brizeno   Edgewood Nm.7:51.50 395516  300 
5James Hartshorn   7:57.11  347 
6571.25Ayden Hibner-Hereford   Albuquerque, NM8:26.76 252570  359 Goathead Jr. Devo
7577.50Scott Gallagher   Oviedo, FL8:27.21 407344  320 
8Jed Bootzin   9:15.07  362 
9590.00Douglas Torres   Albuquerque, NM9:17.43 340014  406 High Desert Bicycles Team

Men - Cat 3 - Master - 30+

 Place Points NameCity, StateTime USAC #BibTeam
1540.00Lee Dieckman   Westminster, CO7:44.26 379413  338 
2547.14Sergio Cortez   Puebla Mx8:19.89 406579  334 
3James Palmer   8:20.69  361 
4561.42Doug Strangfeld   Parker, CO8:26.26 329908  322 
5Steven Litton   8:34.06  363 
6Tim West   9:01.76  356 
7Johnny Chavez   9:47.36  321 
8Jason Smith   12:23.35  354 

Men - Junior - <14

 Place Points NameCity, StateTime USAC #BibTeam
1503.32Brad Stover   Rapid City, SD7:11.16 321556  315 
2511.99Armen Davis   Longmont, CO7:15.31 293962  305 
3520.66Chase Willie   Longmont, CO7:15.38 298487  319 SMBA(Singletrack Mountain Bike Adventure
4Cedar Palmer   7:26.98  313 
5538.00Quinn Reece   Boulder, CO7:36.35 378260  307 SMBA(Singletrack Mountain Bike Adventure
6546.67Sam Morris   Salt Lake City7:40.23 382005  311 
7555.34Michael Kelly   Longmont7:43.50 407173  318 
8564.01Alex Holtzen   Boulder, CO7:49.85 321534  303 
9Teddy Jaramillo   8:39.61  360 
10581.35Caedon Decker   Frisco, CO11:09.30 407365  323 
11590.02Dylan Ramos   Albuquerque, NM14:18.10 380899  324 
DNSTrent Del Grippo   Golden, CO 314386  306 

Women - Pro - Progrt

 Place Points NameCity, StateTime USAC #BibTeam
1462.59Wendy Palmer   Moab, UT7:23.16 201162  37 
2505.06Amber Price   Westminster, CO8:20.68 255122  42 
3547.53Katy Hanlon   Avon, CO9:41.56 286012  27 
4590.00Christen Boyer   Aspen, CO11:30.65 248742  25 

Women - Cat 1 - Junior - 15-18

 Place Points NameCity, StateTime USAC #BibTeam
1540.00Michelle Pederson   Los Alamos, NM9:18.94 378263  182 Bike n Sport Racing
2565.00Samantha Kingshill   Sacramento, CA10:09.41 405259  136 
3590.00Summer Hull   Tucson19:00.55 399637  104 

Women - Cat 1 - Senior - 19-29

 Place Points NameCity, StateTime USAC #BibTeam
1Meghan Kane   Dillon, CO8:05.45 223279  161 Fort Lewis College
2Amanda Cordell   Salt Lake City, UT8:25.43 368535  117 

Women - Cat 1 - Master - 30-39

 Place Points NameCity, StateTime USAC #BibTeam
1540.00Lindsay Yost   Brighton, CO7:53.25 330222  138 
2565.00Noelle Champagne   Atascadero, CA8:21.84 374732  127 
3590.00Corrine Miller   Caseyville, IL9:12.83 283598  400 Bike Surgeon/Continental Tire

Women - Cat 2 - Senior - 19-29

 Place Points NameCity, StateTime USAC #BibTeam
1Jacqueline thomas   Winter Park8:10.82 407465  249 
2Terah Blake   Missoula Montana8:56.98 377697  214 

Women - Cat 2 - Master - 30+

 Place Points NameCity, StateTime USAC #BibTeam
1540.00Krista Park   Madison, SD8:23.26 203842  330 
2556.67Erin Sears   Austin9:07.47 407341  229 
3573.34Sabrina Norton   Golden, CO9:59.21 396309  221 
4590.01Rachel Weaver   Santa Fe, NM11:35.85 316416  204 

Women - Cat 3 - Junior - 15-18

 Place Points NameCity, StateTime USAC #BibTeam
1Sarah Iosco   Huntsville 9:30.04 406644  340 

Women - Cat 3 - Senior - 19-29

 Place Points NameCity, StateTime USAC #BibTeam
1Jill Blecke   Albuquerque, NM11:24.35 407082  314 
2Kristen Naber   Albuquerque16:37.92 406822  328 

Women - Junior - <14

 Place Points NameCity, StateTime USAC #BibTeam
1McKenna Merten   Jamul Ca12:28.96 378493  309 

Report missing or incorrect license numbers

Volkswagen
ShimanoSpySierra NevadaBonk BreakerUSACDF
UCI USA Cycling is the official governing body for all disciplines of competitive cycling in the United States. The 501c3, membership-based organization aims both to achieve sustained success in international cycling competition and to grow competitive cycling in America while delivering an exceptional customer experience.
View Children's Online Privacy Protection Policy
US Olympic Committee